Location: ???
(60.6398°N, 46.9067°E)
Time: 18:00:11
(UTC+00:00)

COSMOS 2455 - Pass Details

Date: 08 December 2019
Orbit: 903 x 907 km, 67.1° (Epoch: 22 January)

Event Time Altitude Azimuth Distance (km) Brightness Sun altitude
Rises 15:56:51 0° 270° (W) 3,536 7.2 -28.5°
Reaches altitude 10° 15:59:28 10° 276° (W) 2,596 6.2 -28.9°
Maximum altitude 16:05:17 48° 350° (N) 1,180 3.4 -29.6°
Enters shadow 16:05:36 47° 0° (N) 1,186 3.4 -29.6°
